Weather History for Winfield, KS

Change the Weather History Date:

Wednesday, August 8, 2012

  Actual Average Record
Temperature  
Mean Temperature 88 °F -  
Max Temperature 104 °F 88 °F 104 °F (2012)
Min Temperature 73 °F 67 °F 60 °F (1997)
Cooling Degree Days 24    
Growing Degree Days 38 (Base 50)    
Moisture  
Dew Point 60 °F    
Average Humidity 40    
Maximum Humidity 71    
Minimum Humidity 22    
Precipitation  
Precipitation 0.00 in - - ()
Sea Level Pressure  
Sea Level Pressure 29.89 in    
Wind  
Wind Speed 6 mph (NNW)    
Max Wind Speed 14 mph    
Max Gust Speed 22 mph    
Visibility 10 miles    
Events      
Averages and records for this station are not official NWS values.
T = Trace of Precipitation, MM = Missing Value Source: NWS Daily Summary

Daily Weather History Graph

Daily Weather History Graph

Search for Another Location

Airport:

Trip Planner

Search our weather history database for the weather conditions in past years. The results will help you decide how hot, cold, wet, or windy it might be!

Date:

Astronomy

Aug. 08, 2012 Rise Set
Actual Time 6:39 AM CDT 8:27 PM CDT
Civil Twilight 6:11 AM CDT 8:55 PM CDT
Nautical Twilight 5:36 AM CDT 9:29 PM CDT
Astronomical Twilight 5:00 AM CDT 10:05 PM CDT
Moon 11:54 PM CDT (8/8) 1:14 PM CDT (8/8)
Length of Visible Light 14h 44m
Length of Day
13h 48m
Waning Gibbous, 60% of the Moon is Illuminated
Aug 8
Waning Gibbous
Aug 9
Last Quarter
Aug 17
New
Aug 24
First Quarter
Aug 31
Full

Hourly Weather History & Observations

Time (CDT) Temp. Heat Index Dew Point Humidity Pressure Visibility Wind Dir Wind Speed Gust Speed Precip Events Conditions
12:54 AM 82.0 °F 83.1 °F 63.0 °F 52% 29.91 in 10.0 mi West 5.8 mph - N/A   Clear
1:54 AM 82.0 °F 83.4 °F 64.0 °F 54% 29.92 in 10.0 mi Calm Calm - N/A   Clear
2:54 AM 80.1 °F 81.7 °F 64.0 °F 58% 29.91 in 10.0 mi Calm Calm - N/A   Clear
3:54 AM 77.0 °F - 63.0 °F 62% 29.91 in 10.0 mi Calm Calm - N/A   Clear
4:54 AM 73.9 °F - 64.0 °F 71% 29.91 in 10.0 mi NNW 3.5 mph - N/A   Clear
5:54 AM 75.0 °F - 64.0 °F 69% 29.94 in 10.0 mi NW 6.9 mph - N/A   Clear
8:54 AM 84.9 °F 85.4 °F 62.1 °F 46% 29.95 in 10.0 mi North 6.9 mph - N/A   Clear
9:54 AM 91.0 °F 90.9 °F 61.0 °F 36% 29.95 in 10.0 mi NNW 11.5 mph - N/A   Clear
10:54 AM 91.0 °F 90.9 °F 61.0 °F 36% 29.96 in 10.0 mi North 8.1 mph - N/A   Clear
11:54 AM 96.1 °F 96.4 °F 61.0 °F 31% 29.95 in 10.0 mi WNW 11.5 mph - N/A   Clear
12:54 PM 99.0 °F 99.5 °F 60.1 °F 28% 29.94 in 10.0 mi NNW 10.4 mph - N/A   Clear
1:54 PM 102.0 °F 102.2 °F 59.0 °F 24% 29.91 in 10.0 mi NW 13.8 mph 18.4 mph N/A   Clear
2:54 PM 102.0 °F 102.2 °F 59.0 °F 24% 29.89 in 10.0 mi North 11.5 mph 20.7 mph N/A   Clear
3:54 PM 102.0 °F 101.6 °F 57.9 °F 23% 29.86 in 10.0 mi North 4.6 mph 18.4 mph N/A   Clear
4:54 PM 104.0 °F 104.0 °F 57.9 °F 22% 29.84 in 10.0 mi NNW 11.5 mph 21.9 mph N/A   Clear
6:54 PM 102.0 °F 101.1 °F 57.0 °F 22% 29.82 in 10.0 mi NNW 9.2 mph - N/A   Clear
7:54 PM 97.0 °F 96.1 °F 57.9 °F 27% 29.82 in 10.0 mi NW 6.9 mph - N/A   Clear
8:54 PM 90.0 °F 88.8 °F 57.9 °F 34% 29.82 in 10.0 mi Calm Calm - N/A   Clear
9:54 PM 93.0 °F 90.6 °F 53.1 °F 26% 29.84 in 10.0 mi East 3.5 mph - N/A   Clear
10:54 PM 82.9 °F 82.1 °F 55.9 °F 39% 29.84 in 10.0 mi South 3.5 mph - N/A   Clear
11:54 PM 81.0 °F 83.3 °F 66.9 °F 62% 29.88 in 10.0 mi East 6.9 mph - N/A   Clear